This is the latest recevied weather packets stored in our database for station/object LU3HGB-WX. If no packets are shown the sender has not sent any weather packets the latest 10 day(s).
| Time | Temp. | Humidity | Pressure | Rain* | Wind** | Luminosity | Snow |
|---|---|---|---|---|---|---|---|
| 1788202360 | 18.89° C | 43% | 1015 hPa | 0 mm | - | 690 W/m² | - |
| 1788202062 | 18.33° C | 42% | 1016 hPa | 0 mm | - | 712 W/m² | - |
| 1788201760 | 17.78° C | 48% | 1015 hPa | 0 mm | - | 741 W/m² | - |
| 1788201460 | 17.22° C | 52% | 1015 hPa | 0 mm | - | 782 W/m² | - |
| 1788201160 | 16.11° C | 59% | 1016 hPa | 0 mm | - | 808 W/m² | - |
| 1788200860 | 15.56° C | 65% | 1016 hPa | 0 mm | - | 378 W/m² | - |
| 1788200560 | 15° C | 64% | 1016 hPa | 0 mm | - | 308 W/m² | - |
| 1788200260 | 15° C | 68% | 1016 hPa | 0 mm | - | 716 W/m² | - |
| 1788199961 | 14.44° C | 71% | 1017 hPa | 0 mm | - | 503 W/m² | - |
| 1788199660 | 14.44° C | 74% | 1017 hPa | 0 mm | - | 392 W/m² | - |
| 1788199360 | 13.89° C | 81% | 1017 hPa | 0 mm | - | 536 W/m² | - |
| 1788199059 | 13.33° C | 83% | 1018 hPa | 0 mm | - | 375 W/m² | - |
| 1788198761 | 12.78° C | 89% | 1018 hPa | 0 mm | - | 234 W/m² | - |
| 1788198459 | 12.78° C | 86% | 1018 hPa | 0.76 mm | - | 233 W/m² | - |
| 1788198159 | 12.22° C | 88% | 1017 hPa | 0 mm | - | 325 W/m² | - |
| 1788197860 | 12.22° C | 88% | 1018 hPa | 0 mm | - | 264 W/m² | - |
| 1788197559 | 11.67° C | 89% | 1018 hPa | 0.51 mm | - | 169 W/m² | - |
| 1788197263 | 12.22° C | 88% | 1018 hPa | 4.83 mm | - | 77 W/m² | - |
| 1788196959 | 12.22° C | 85% | 1017 hPa | 2.03 mm | - | 56 W/m² | - |
| 1788196660 | 13.33° C | 83% | 1017 hPa | 2.29 mm | - | 52 W/m² | - |
| 1788196361 | 13.89° C | 76% | 1017 hPa | 15.49 mm | - | 51 W/m² | - |
| 1788196060 | 15° C | 66% | 1017 hPa | 2.03 mm | - | 59 W/m² | - |
| 1788195760 | 16.11° C | 59% | 1017 hPa | 0 mm | - | 68 W/m² | - |
| 1788195460 | 16.67° C | 57% | 1017 hPa | 0 mm | - | 65 W/m² | - |
| 1788195160 | 17.78° C | 50% | 1017 hPa | 0 mm | - | 134 W/m² | - |
* Rain latest hour (hover to see other rain measurements)
** Current wind speed in m/s (hover to see current wind gust speed)